User: anonymous   Login
Location: Unspecified
(0.0000°N, 0.0000°E)
Time: 04:14:30
(UTC+00:00)
Language:

STARLINK-37182 - Orbit

View from above orbital plane
View from above orbital plane
View from above satellite
View from above satellite

Ground track
Ground track

The orbit is defined by the following mean orbital elements,

1 68348U          26145.58335647 +.00000000 +00000-0 +72912-3 0 00005
2 68348  53.1601 347.0164 0000675  86.7840 346.4437 15.34384496    01
Epoch (UTC): 25 May 2026 14:00:01
Eccentricity: 0.0000675
inclination: 53.1601°
perigee height: 462 km
apogee height: 463 km
right ascension of ascending node: 347.0164°
argument of perigee: 86.7840°
revolutions per day: 15.34384496
mean anomaly at epoch: 346.4437°

The dashed part of the orbit path shows where the satellite is in the earth's shadow,  

DLR